Location: Cheching
(60.0667°N, 164.2167°W)
Time: 21:44:30
(UTC+00:00)

XW-2D - Pass Details

Date: 22 January 2021
Orbit: 505 x 525 km, 97.5° (Epoch: 07 March)

Event Time Altitude Azimuth Distance (km) Brightness Sun altitude
Rises 03:59:29 0° 174° (S) 2,622 ? -8.7°
Reaches altitude 10° 04:01:36 10° 178° (S) 1,743 ? -9.0°
Maximum altitude 04:05:18 57° 258° (WSW) 621 ? -9.4°
Drops below altitude 10° 04:09:04 10° 338° (NNW) 1,770 ? -9.8°
Sets 04:11:13 0° 343° (NNW) 2,666 ? -10.1°
